• în România
  • Lista ţărilor
  • Pe 7 zile
  • Temperatura apei
  • Hartă satelitară
  • Meteo pe hartă
  • Widget-uri
  • user-avatar
    Intrare

    Meteo pe oră la Sankt Polten

    Astăzi, 23 Mai, Marţi

    Timp Temperatura Precipitaţii Vânt Presiune Umiditate
    00:00 +13°C° 0,4 mm 1 m/s 736 mmHg 94%
    01:00 +13°C° 0 mm 1 m/s 736 mmHg 93%
    02:00 +13°C° 0,2 mm 1 m/s 736 mmHg 93%
    03:00 +12°C° 0,2 mm 1 m/s 736 mmHg 93%
    04:00 +12°C° 0,2 mm 1 m/s 736 mmHg 93%
    05:00 +14°C° 0,1 mm 1 m/s 736 mmHg 89%
    06:00 +16°C° 0,1 mm 1 m/s 736 mmHg 85%
    07:00 +19°C° 0,1 mm 1 m/s 737 mmHg 80%
    08:00 +19°C° 0,1 mm 2 m/s 737 mmHg 74%
    09:00 +21°C° 0,1 mm 2 m/s 737 mmHg 67%
    10:00 +22°C° 0,1 mm 3 m/s 737 mmHg 60%
    11:00 +22°C° 0,2 mm 3 m/s 737 mmHg 59%
    12:00 +23°C° 0,2 mm 4 m/s 736 mmHg 59%
    13:00 +23°C° 0,2 mm 4 m/s 736 mmHg 58%
    14:00 +23°C° 0,3 mm 4 m/s 736 mmHg 61%
    15:00 +23°C° 0,3 mm 4 m/s 736 mmHg 64%
    16:00 +22°C° 0,3 mm 4 m/s 736 mmHg 66%
    17:00 +21°C° 0,3 mm 4 m/s 736 mmHg 72%
    18:00 +20°C° 0,3 mm 3 m/s 736 mmHg 78%
    19:00 +18°C° 0,3 mm 3 m/s 736 mmHg 84%
    20:00 +17°C° 0,2 mm 3 m/s 736 mmHg 86%
    21:00 +16°C° 0,2 mm 3 m/s 736 mmHg 88%
    22:00 +14°C° 0,2 mm 3 m/s 737 mmHg 91%
    23:00 +14°C° 0,1 mm 3 m/s 737 mmHg 91%

    Mâine, 24 Mai, Miercuri

    Timp Temperatura Precipitaţii Vânt Presiune Umiditate
    00:00 +14°C° 0,1 mm 3 m/s 737 mmHg 92%
    01:00 +14°C° 0,1 mm 3 m/s 737 mmHg 92%
    02:00 +14°C° 0,2 mm 3 m/s 737 mmHg 93%
    03:00 +14°C° 0,2 mm 3 m/s 736 mmHg 93%
    04:00 +14°C° 0,2 mm 3 m/s 736 mmHg 94%
    05:00 +14°C° 0,2 mm 4 m/s 736 mmHg 93%
    06:00 +15°C° 0,2 mm 4 m/s 737 mmHg 92%
    07:00 +15°C° 0,2 mm 5 m/s 737 mmHg 91%
    08:00 +15°C° 0,2 mm 5 m/s 737 mmHg 86%
    09:00 +16°C° 0,2 mm 6 m/s 738 mmHg 82%
    10:00 +16°C° 0,2 mm 6 m/s 738 mmHg 77%
    11:00 +17°C° 0 mm 7 m/s 738 mmHg 69%
    12:00 +18°C° 0 mm 7 m/s 738 mmHg 60%
    13:00 +18°C° 0 mm 7 m/s 738 mmHg 52%
    14:00 +18°C° 0 mm 7 m/s 738 mmHg 54%
    15:00 +18°C° 0 mm 7 m/s 738 mmHg 55%
    16:00 +18°C° 0 mm 7 m/s 738 mmHg 56%
    17:00 +16°C° 0 mm 6 m/s 738 mmHg 63%
    18:00 +15°C° 0 mm 5 m/s 738 mmHg 69%
    19:00 +14°C° 0 mm 4 m/s 738 mmHg 75%
    20:00 +13°C° 0,1 mm 3 m/s 739 mmHg 80%
    21:00 +12°C° 0,1 mm 3 m/s 739 mmHg 84%
    22:00 +12°C° 0,1 mm 2 m/s 739 mmHg 89%
    23:00 +12°C° 0 mm 2 m/s 739 mmHg 89%

    Poimâine, 25 Mai, Joi

    Timp Temperatura Precipitaţii Vânt Presiune Umiditate
    00:00 +12°C° 0 mm 2 m/s 739 mmHg 90%
    01:00 +12°C° 0 mm 2 m/s 739 mmHg 90%
    02:00 +12°C° 0,1 mm 2 m/s 738 mmHg 91%
    03:00 +12°C° 0,1 mm 2 m/s 738 mmHg 93%
    04:00 +12°C° 0,1 mm 2 m/s 738 mmHg 94%
    05:00 +11°C° 0,2 mm 3 m/s 738 mmHg 92%
    06:00 +12°C° 0,2 mm 3 m/s 738 mmHg 91%
    07:00 +13°C° 0,2 mm 3 m/s 738 mmHg 90%
    08:00 +13°C° 0,2 mm 4 m/s 738 mmHg 89%
    09:00 +14°C° 0,2 mm 4 m/s 737 mmHg 87%
    10:00 +15°C° 0,2 mm 5 m/s 737 mmHg 86%
    11:00 +15°C° 0,3 mm 5 m/s 737 mmHg 85%
    12:00 +16°C° 0,3 mm 5 m/s 737 mmHg 84%
    13:00 +16°C° 0,3 mm 5 m/s 737 mmHg 82%
    14:00 +16°C° 0,3 mm 5 m/s 737 mmHg 81%
    15:00 +16°C° 0,3 mm 5 m/s 736 mmHg 80%
    16:00 +17°C° 0,3 mm 5 m/s 736 mmHg 79%
    17:00 +17°C° 0,1 mm 4 m/s 736 mmHg 81%
    18:00 +15°C° 0,1 mm 4 m/s 736 mmHg 83%
    19:00 +14°C° 0,1 mm 3 m/s 736 mmHg 85%
    20:00 +14°C° 0,1 mm 3 m/s 736 mmHg 88%
    21:00 +14°C° 0,1 mm 2 m/s 737 mmHg 91%
    22:00 +13°C° 0,1 mm 2 m/s 737 mmHg 93%
    23:00 +13°C° 0,1 mm 2 m/s 737 mmHg 94%

    26 Mai, Vineri

    Timp Temperatura Precipitaţii Vânt Presiune Umiditate
    00:00 +13°C° 0,1 mm 2 m/s 737 mmHg 94%
    01:00 +12°C° 0,1 mm 2 m/s 736 mmHg 95%
    02:00 +13°C° 0,3 mm 2 m/s 736 mmHg 95%
    03:00 +13°C° 0,3 mm 2 m/s 736 mmHg 95%
    04:00 +13°C° 0,3 mm 2 m/s 736 mmHg 95%
    05:00 +12°C° 0,3 mm 3 m/s 736 mmHg 93%
    06:00 +13°C° 0,3 mm 3 m/s 736 mmHg 92%
    07:00 +13°C° 0,3 mm 3 m/s 736 mmHg 90%
    08:00 +14°C° 0,2 mm 4 m/s 736 mmHg 84%
    09:00 +15°C° 0,2 mm 4 m/s 736 mmHg 78%
    10:00 +17°C° 0,2 mm 4 m/s 736 mmHg 72%
    11:00 +17°C° 0,1 mm 5 m/s 736 mmHg 67%
    12:00 +17°C° 0,1 mm 5 m/s 736 mmHg 62%
    13:00 +19°C° 0,1 mm 5 m/s 736 mmHg 57%
    14:00 +19°C° 0,1 mm 5 m/s 736 mmHg 58%
    15:00 +19°C° 0,1 mm 4 m/s 736 mmHg 60%
    16:00 +19°C° 0,1 mm 4 m/s 736 mmHg 61%
    17:00 +17°C° 0,1 mm 4 m/s 736 mmHg 67%
    18:00 +16°C° 0,1 mm 3 m/s 736 mmHg 74%
    19:00 +15°C° 0,1 mm 2 m/s 736 mmHg 81%
    20:00 +13°C° 0 mm 2 m/s 736 mmHg 85%
    21:00 +12°C° 0 mm 2 m/s 736 mmHg 89%
    22:00 +10°C° 0 mm 2 m/s 737 mmHg 93%
    23:00 +9°C° 0 mm 2 m/s 736 mmHg 93%

    27 Mai, Sâmbătă

    Timp Temperatura Precipitaţii Vânt Presiune Umiditate
    00:00 +9°C° 0 mm 2 m/s 736 mmHg 94%
    01:00 +9°C° 0 mm 2 m/s 736 mmHg 94%
    02:00 +9°C° 0 mm 2 m/s 736 mmHg 94%
    03:00 +9°C° 0 mm 2 m/s 736 mmHg 94%
    04:00 +9°C° 0 mm 2 m/s 737 mmHg 95%
    05:00 +10°C° 0 mm 2 m/s 737 mmHg 90%
    06:00 +12°C° 0 mm 2 m/s 737 mmHg 85%
    07:00 +13°C° 0 mm 3 m/s 737 mmHg 81%
    08:00 +14°C° 0 mm 3 m/s 737 mmHg 72%
    09:00 +16°C° 0 mm 3 m/s 737 mmHg 64%
    10:00 +18°C° 0 mm 3 m/s 738 mmHg 55%
    11:00 +18°C° 0 mm 3 m/s 737 mmHg 55%
    12:00 +19°C° 0 mm 3 m/s 737 mmHg 55%
    13:00 +19°C° 0 mm 4 m/s 737 mmHg 56%
    14:00 +19°C° 0,2 mm 3 m/s 737 mmHg 59%
    15:00 +19°C° 0,2 mm 3 m/s 737 mmHg 62%
    16:00 +19°C° 0,2 mm 3 m/s 738 mmHg 66%
    17:00 +17°C° 0,1 mm 3 m/s 738 mmHg 72%
    18:00 +16°C° 0,1 mm 2 m/s 738 mmHg 79%
    19:00 +15°C° 0,1 mm 1 m/s 738 mmHg 85%
    20:00 +14°C° 0 mm 1 m/s 738 mmHg 88%
    21:00 +12°C° 0 mm 1 m/s 739 mmHg 91%
    22:00 +10°C° 0 mm 1 m/s 739 mmHg 94%
    23:00 +10°C° 0 mm 1 m/s 739 mmHg 94%

    28 Mai, Duminică

    Timp Temperatura Precipitaţii Vânt Presiune Umiditate
    00:00 +10°C° 0 mm 1 m/s 739 mmHg 94%
    01:00 +10°C° 0 mm 1 m/s 739 mmHg 94%
    02:00 +9°C° 0 mm 1 m/s 739 mmHg 94%
    03:00 +9°C° 0 mm 1 m/s 739 mmHg 94%
    04:00 +9°C° 0 mm 1 m/s 740 mmHg 95%
    05:00 +11°C° 0 mm 1 m/s 740 mmHg 89%
    06:00 +13°C° 0 mm 2 m/s 740 mmHg 82%
    07:00 +16°C° 0 mm 2 m/s 741 mmHg 76%
    08:00 +17°C° 0 mm 2 m/s 741 mmHg 70%
    09:00 +19°C° 0 mm 2 m/s 741 mmHg 63%
    10:00 +21°C° 0 mm 3 m/s 741 mmHg 56%
    11:00 +22°C° 0 mm 3 m/s 741 mmHg 55%
    12:00 +24°C° 0 mm 3 m/s 741 mmHg 54%
    13:00 +23°C° 0 mm 4 m/s 740 mmHg 52%
    14:00 +23°C° 0 mm 4 m/s 740 mmHg 54%
    15:00 +23°C° 0 mm 4 m/s 740 mmHg 56%
    16:00 +23°C° 0 mm 4 m/s 740 mmHg 58%
    17:00 +21°C° 0 mm 3 m/s 740 mmHg 66%
    18:00 +20°C° 0 mm 3 m/s 740 mmHg 74%
    19:00 +18°C° 0 mm 3 m/s 740 mmHg 81%
    20:00 +17°C° 0 mm 2 m/s 740 mmHg 85%
    21:00 +15°C° 0 mm 2 m/s 741 mmHg 90%
    22:00 +14°C° 0 mm 2 m/s 741 mmHg 94%
    23:00 +13°C° 0 mm 2 m/s 741 mmHg 94%
    Arată mai mult